When you browse on this site, cookies collect data to enhance your experience and personalize the content and advertising you see.
Visit our Privacy Policy to learn more. By continuing to use the site, you agree to this use of cookies and data.
  • In Slovakia
  • List of Countries
  • For 7 days
  • Water Temperature
  • Satellite Maps
  • Weather Map
  • Weather Widgets
  • user-avatar
    Login

    Hourly Weather Novotoshkurovo

    Today, 18 January, Friday

    Time Temperature Precipitation Wind Pressure Humidity
    00:00 -17°C° 0 mm 3 mps 742 mmHg 96%
    01:00 -17°C° 0 mm 3 mps 743 mmHg 96%
    02:00 -18°C° 0 mm 3 mps 743 mmHg 96%
    03:00 -19°C° 0 mm 4 mps 743 mmHg 96%
    04:00 -18°C° 0 mm 4 mps 743 mmHg 96%
    05:00 -17°C° 0 mm 4 mps 743 mmHg 95%
    06:00 -18°C° 0 mm 5 mps 742 mmHg 94%
    07:00 -17°C° 0 mm 5 mps 742 mmHg 93%
    08:00 -17°C° 0 mm 6 mps 742 mmHg 92%
    09:00 -17°C° 0 mm 7 mps 741 mmHg 90%
    10:00 -17°C° 0 mm 7 mps 741 mmHg 88%
    11:00 -16°C° 0 mm 8 mps 741 mmHg 87%
    12:00 -16°C° 0 mm 8 mps 740 mmHg 87%
    13:00 -15°C° 0 mm 8 mps 740 mmHg 86%
    14:00 -13°C° 0.4 mm 8 mps 740 mmHg 88%
    15:00 -13°C° 0.4 mm 8 mps 740 mmHg 89%
    16:00 -12°C° 0.4 mm 8 mps 740 mmHg 91%
    17:00 -12°C° 0.2 mm 8 mps 740 mmHg 91%
    18:00 -12°C° 0.2 mm 7 mps 740 mmHg 91%
    19:00 -12°C° 0.2 mm 7 mps 741 mmHg 90%
    20:00 -11°C° 0 mm 6 mps 741 mmHg 91%
    21:00 -11°C° 0 mm 6 mps 741 mmHg 92%
    22:00 -11°C° 0 mm 6 mps 741 mmHg 92%
    23:00 -11°C° 0.1 mm 6 mps 742 mmHg 93%

    Tomorrow, 19 January, Saturday

    Time Temperature Precipitation Wind Pressure Humidity
    00:00 -11°C° 0.1 mm 5 mps 742 mmHg 93%
    01:00 -11°C° 0.1 mm 5 mps 742 mmHg 93%
    02:00 -11°C° 0.1 mm 5 mps 742 mmHg 94%
    03:00 -11°C° 0.1 mm 5 mps 742 mmHg 94%
    04:00 -11°C° 0.1 mm 5 mps 742 mmHg 94%
    05:00 -12°C° 0.1 mm 5 mps 742 mmHg 94%
    06:00 -12°C° 0.1 mm 5 mps 742 mmHg 94%
    07:00 -12°C° 0.1 mm 5 mps 742 mmHg 95%
    08:00 -12°C° 0 mm 6 mps 742 mmHg 94%
    09:00 -12°C° 0 mm 6 mps 742 mmHg 94%
    10:00 -11°C° 0 mm 6 mps 741 mmHg 94%
    11:00 -12°C° 0 mm 7 mps 741 mmHg 93%
    12:00 -11°C° 0 mm 7 mps 741 mmHg 93%
    13:00 -11°C° 0 mm 7 mps 741 mmHg 93%
    14:00 -9°C° 0.1 mm 7 mps 740 mmHg 92%
    15:00 -9°C° 0.1 mm 7 mps 740 mmHg 92%
    16:00 -9°C° 0.1 mm 6 mps 740 mmHg 92%
    17:00 -9°C° 0.1 mm 6 mps 740 mmHg 92%
    18:00 -8°C° 0.1 mm 6 mps 740 mmHg 92%
    19:00 -8°C° 0.1 mm 6 mps 740 mmHg 93%
    20:00 -7°C° 0.1 mm 5 mps 740 mmHg 93%
    21:00 -7°C° 0.1 mm 5 mps 740 mmHg 94%
    22:00 -7°C° 0.1 mm 5 mps 740 mmHg 94%
    23:00 -7°C° 0.1 mm 5 mps 739 mmHg 94%

    Day after tomorrow, 20 January, Sunday

    Time Temperature Precipitation Wind Pressure Humidity
    00:00 -7°C° 0.1 mm 4 mps 739 mmHg 94%
    01:00 -7°C° 0.1 mm 4 mps 739 mmHg 94%
    02:00 -7°C° 0.4 mm 5 mps 738 mmHg 94%
    03:00 -7°C° 0.4 mm 5 mps 738 mmHg 94%
    04:00 -8°C° 0.4 mm 6 mps 738 mmHg 94%
    05:00 -8°C° 0.6 mm 6 mps 737 mmHg 94%
    06:00 -8°C° 0.6 mm 6 mps 737 mmHg 94%
    07:00 -7°C° 0.6 mm 5 mps 737 mmHg 94%
    08:00 -7°C° 0.3 mm 5 mps 737 mmHg 94%
    09:00 -6°C° 0.3 mm 5 mps 737 mmHg 94%
    10:00 -6°C° 0.3 mm 5 mps 737 mmHg 94%
    11:00 -8°C° 0.1 mm 5 mps 737 mmHg 94%
    12:00 -10°C° 0.1 mm 6 mps 738 mmHg 93%
    13:00 -11°C° 0.1 mm 6 mps 738 mmHg 92%
    14:00 -14°C° 0 mm 6 mps 739 mmHg 93%
    15:00 -14°C° 0 mm 5 mps 739 mmHg 93%
    16:00 -17°C° 0 mm 5 mps 740 mmHg 94%
    17:00 -16°C° 0 mm 4 mps 741 mmHg 94%
    18:00 -17°C° 0 mm 4 mps 741 mmHg 95%
    19:00 -16°C° 0 mm 3 mps 742 mmHg 95%
    20:00 -17°C° 0 mm 3 mps 743 mmHg 95%
    21:00 -17°C° 0 mm 3 mps 743 mmHg 96%
    22:00 -18°C° 0 mm 3 mps 744 mmHg 97%
    23:00 -18°C° 0 mm 3 mps 744 mmHg 97%

    21 January, Monday

    Time Temperature Precipitation Wind Pressure Humidity
    00:00 -19°C° 0 mm 3 mps 744 mmHg 97%
    01:00 -19°C° 0 mm 3 mps 745 mmHg 98%
    02:00 -19°C° 0 mm 3 mps 745 mmHg 98%
    03:00 -20°C° 0 mm 4 mps 745 mmHg 97%
    04:00 -19°C° 0 mm 4 mps 745 mmHg 97%
    05:00 -20°C° 0 mm 5 mps 745 mmHg 96%
    06:00 -20°C° 0 mm 6 mps 744 mmHg 96%
    07:00 -20°C° 0 mm 6 mps 744 mmHg 95%
    08:00 -19°C° 0 mm 7 mps 744 mmHg 94%
    09:00 -19°C° 0 mm 7 mps 744 mmHg 93%
    10:00 -18°C° 0 mm 7 mps 744 mmHg 92%
    11:00 -18°C° 0.1 mm 7 mps 744 mmHg 91%
    12:00 -17°C° 0.1 mm 7 mps 744 mmHg 90%
    13:00 -17°C° 0.1 mm 7 mps 744 mmHg 89%
    14:00 -17°C° 0.1 mm 7 mps 744 mmHg 89%
    15:00 -17°C° 0.1 mm 7 mps 744 mmHg 89%
    16:00 -17°C° 0.1 mm 7 mps 744 mmHg 89%
    17:00 -17°C° 0.2 mm 7 mps 744 mmHg 89%
    18:00 -17°C° 0.2 mm 7 mps 744 mmHg 90%
    19:00 -17°C° 0.2 mm 7 mps 744 mmHg 90%
    20:00 -17°C° 0.2 mm 7 mps 744 mmHg 90%
    21:00 -17°C° 0.2 mm 7 mps 743 mmHg 90%
    22:00 -18°C° 0.2 mm 7 mps 743 mmHg 90%
    23:00 -18°C° 0.3 mm 7 mps 743 mmHg 91%

    22 January, Tuesday

    Time Temperature Precipitation Wind Pressure Humidity
    00:00 -18°C° 0.3 mm 7 mps 743 mmHg 92%
    01:00 -18°C° 0.3 mm 7 mps 743 mmHg 93%
    02:00 -17°C° 0.3 mm 7 mps 742 mmHg 93%
    03:00 -17°C° 0.3 mm 7 mps 742 mmHg 93%
    04:00 -16°C° 0.3 mm 6 mps 741 mmHg 93%
    05:00 -16°C° 0.4 mm 6 mps 741 mmHg 93%
    06:00 -16°C° 0.4 mm 6 mps 740 mmHg 93%
    07:00 -17°C° 0.4 mm 6 mps 739 mmHg 93%
    08:00 -17°C° 0.4 mm 5 mps 739 mmHg 93%
    09:00 -15°C° 0.4 mm 5 mps 738 mmHg 93%
    10:00 -15°C° 0.4 mm 5 mps 738 mmHg 93%
    11:00 -14°C° 0.3 mm 4 mps 737 mmHg 93%
    12:00 -14°C° 0.3 mm 4 mps 736 mmHg 93%
    13:00 -12°C° 0.3 mm 3 mps 736 mmHg 93%
    14:00 -12°C° 0.5 mm 3 mps 735 mmHg 94%
    15:00 -10°C° 0.5 mm 3 mps 734 mmHg 95%
    16:00 -10°C° 0.5 mm 3 mps 733 mmHg 96%
    17:00 -11°C° 1.2 mm 4 mps 733 mmHg 96%
    18:00 -13°C° 1.2 mm 5 mps 733 mmHg 95%
    19:00 -14°C° 1.2 mm 6 mps 733 mmHg 95%
    20:00 -15°C° 0.2 mm 6 mps 735 mmHg 94%
    21:00 -15°C° 0.2 mm 6 mps 736 mmHg 93%
    22:00 -15°C° 0.2 mm 5 mps 737 mmHg 93%
    23:00 -18°C° 0.1 mm 5 mps 738 mmHg 93%

    23 January, Wednesday

    Time Temperature Precipitation Wind Pressure Humidity
    00:00 -20°C° 0.1 mm 5 mps 739 mmHg 94%
    01:00 -21°C° 0.1 mm 5 mps 740 mmHg 95%
    02:00 -23°C° 0 mm 4 mps 741 mmHg 96%
    03:00 -26°C° 0 mm 4 mps 741 mmHg 97%
    04:00 -27°C° 0 mm 3 mps 742 mmHg 98%
    05:00 -29°C° 0 mm 3 mps 743 mmHg 98%
    06:00 -30°C° 0 mm 3 mps 743 mmHg 98%
    07:00 -31°C° 0 mm 3 mps 744 mmHg 98%
    08:00 -31°C° 0 mm 3 mps 744 mmHg 98%
    09:00 -31°C° 0 mm 3 mps 745 mmHg 98%
    10:00 -31°C° 0 mm 3 mps 746 mmHg 98%
    11:00 -30°C° 0 mm 3 mps 746 mmHg 97%
    12:00 -30°C° 0 mm 3 mps 747 mmHg 97%
    13:00 -30°C° 0 mm 3 mps 747 mmHg 97%
    14:00 -30°C° 0 mm 3 mps 748 mmHg 97%
    15:00 -31°C° 0 mm 3 mps 748 mmHg 97%
    16:00 -29°C° 0 mm 2 mps 749 mmHg 98%
    17:00 -30°C° 0 mm 2 mps 749 mmHg 98%
    18:00 -31°C° 0 mm 2 mps 750 mmHg 98%
    19:00 -32°C° 0 mm 2 mps 751 mmHg 99%
    20:00 -32°C° 0 mm 2 mps 751 mmHg 99%
    21:00 -34°C° 0 mm 2 mps 752 mmHg 99%
    22:00 -34°C° 0 mm 2 mps 752 mmHg 99%
    23:00 -34°C° 0 mm 2 mps 753 mmHg 99%
    Show more